Time,TemperatureF,DewpointF,PressureIn,WindDirection,WindDirectionDegrees,WindSpeedMPH,WindSpeedGustMPH,Humidity,HourlyPrecipIn,Conditions,Clouds,dailyrainin,SolarRadiationWatts/m^2,SoftwareType,DateUTC
2013-11-14 00:13:00,73.0,64.0,-100.00,NE,54,14.0,27.0,73,0.00,,,0.00,0.000000,,2013-11-14 05:13:00,
2013-11-14 00:23:00,73.0,64.0,-100.00,NE,54,14.0,27.0,73,0.00,,,0.00,0.000000,,2013-11-14 05:23:00,
2013-11-14 00:34:00,73.0,64.0,-100.00,NE,54,14.0,27.0,73,0.00,,,0.00,0.000000,,2013-11-14 05:34:00,
2013-11-14 01:12:00,73.0,63.0,-100.00,ENE,58,14.0,28.0,70,0.00,,,0.00,0.000000,,2013-11-14 06:12:00,
2013-11-14 01:22:00,73.0,63.0,-100.00,ENE,58,14.0,28.0,70,0.00,,,0.00,0.000000,,2013-11-14 06:22:00,
2013-11-14 01:32:00,73.0,63.0,-100.00,ENE,58,14.0,28.0,70,0.00,,,0.00,0.000000,,2013-11-14 06:32:00,
2013-11-14 02:11:00,73.0,63.0,-100.00,ENE,61,15.0,31.0,71,0.00,,,0.00,0.000000,,2013-11-14 07:11:00,
2013-11-14 02:22:00,73.0,63.0,-100.00,ENE,61,15.0,31.0,71,0.00,,,0.00,0.000000,,2013-11-14 07:22:00,
2013-11-14 02:32:00,73.0,63.0,-100.00,ENE,61,15.0,31.0,71,0.00,,,0.00,0.000000,,2013-11-14 07:32:00,
2013-11-14 03:12:00,73.0,63.0,-100.00,ENE,63,15.0,31.0,71,0.00,,,0.00,0.000000,,2013-11-14 08:12:00,
2013-11-14 03:22:00,73.0,63.0,-100.00,ENE,63,15.0,31.0,71,0.00,,,0.00,0.000000,,2013-11-14 08:22:00,
2013-11-14 03:32:00,73.0,63.0,-100.00,ENE,63,15.0,31.0,71,0.00,,,0.00,0.000000,,2013-11-14 08:32:00,
2013-11-14 04:11:00,73.0,63.0,-100.00,ENE,62,15.0,27.0,70,0.00,,,0.00,0.000000,,2013-11-14 09:11:00,
2013-11-14 04:22:00,73.0,63.0,-100.00,ENE,62,15.0,27.0,70,0.00,,,0.00,0.000000,,2013-11-14 09:22:00,
2013-11-14 04:33:00,73.0,63.0,-100.00,ENE,62,15.0,27.0,70,0.00,,,0.00,0.000000,,2013-11-14 09:33:00,
2013-11-14 05:12:00,73.0,63.0,-100.00,ENE,63,14.0,28.0,71,0.00,,,0.00,0.000000,,2013-11-14 10:12:00,
2013-11-14 05:23:00,73.0,63.0,-100.00,ENE,63,14.0,28.0,71,0.00,,,0.00,0.000000,,2013-11-14 10:23:00,
2013-11-14 05:33:00,73.0,63.0,-100.00,ENE,63,14.0,28.0,71,0.00,,,0.00,0.000000,,2013-11-14 10:33:00,
2013-11-14 06:11:00,73.0,61.0,-100.00,ENE,68,14.0,31.0,67,0.00,,,0.00,0.000000,,2013-11-14 11:11:00,
2013-11-14 06:22:00,73.0,61.0,-100.00,ENE,68,14.0,31.0,67,0.00,,,0.00,0.000000,,2013-11-14 11:22:00,
2013-11-14 06:32:00,73.0,61.0,-100.00,ENE,68,14.0,31.0,67,0.00,,,0.00,0.000000,,2013-11-14 11:32:00,
2013-11-14 07:12:00,73.0,61.0,-100.00,ENE,66,15.0,27.0,67,0.00,,,0.00,0.000000,,2013-11-14 12:12:00,
2013-11-14 07:22:00,73.0,61.0,-100.00,ENE,66,15.0,27.0,67,0.00,,,0.00,0.000000,,2013-11-14 12:22:00,
2013-11-14 07:32:00,73.0,61.0,-100.00,ENE,66,15.0,27.0,67,0.00,,,0.00,0.000000,,2013-11-14 12:32:00,
2013-11-14 08:11:00,74.0,62.0,-100.00,ENE,71,15.0,30.0,67,0.00,,,0.00,30.000000,,2013-11-14 13:11:00,
2013-11-14 08:22:00,74.0,62.0,-100.00,ENE,71,15.0,30.0,67,0.00,,,0.00,30.000000,,2013-11-14 13:22:00,
2013-11-14 08:32:00,74.0,62.0,-100.00,ENE,71,15.0,30.0,67,0.00,,,0.00,30.000000,,2013-11-14 13:32:00,
2013-11-14 09:11:00,75.0,64.0,-100.00,ENE,61,13.0,25.0,68,0.00,,,0.00,168.000000,,2013-11-14 14:11:00,
2013-11-14 09:22:00,75.0,64.0,-100.00,ENE,61,13.0,25.0,68,0.00,,,0.00,168.000000,,2013-11-14 14:22:00,
2013-11-14 09:32:00,75.0,64.0,-100.00,ENE,61,13.0,25.0,68,0.00,,,0.00,168.000000,,2013-11-14 14:32:00,
2013-11-14 10:11:00,76.0,64.0,-100.00,ENE,69,13.0,26.0,66,0.00,,,0.00,405.000000,,2013-11-14 15:11:00,
2013-11-14 10:22:00,76.0,64.0,-100.00,ENE,69,13.0,26.0,66,0.00,,,0.00,405.000000,,2013-11-14 15:22:00,
2013-11-14 10:33:00,76.0,64.0,-100.00,ENE,69,13.0,26.0,66,0.00,,,0.00,405.000000,,2013-11-14 15:33:00,
2013-11-14 11:13:00,77.0,64.0,-100.00,ENE,75,14.0,25.0,64,0.00,,,0.00,508.000000,,2013-11-14 16:13:00,
2013-11-14 11:23:00,77.0,64.0,-100.00,ENE,75,14.0,25.0,64,0.00,,,0.00,508.000000,,2013-11-14 16:23:00,
2013-11-14 11:33:00,77.0,64.0,-100.00,ENE,75,14.0,25.0,64,0.00,,,0.00,508.000000,,2013-11-14 16:33:00,
2013-11-14 12:13:00,78.0,64.0,-100.00,ENE,69,13.0,28.0,63,0.00,,,0.00,473.000000,,2013-11-14 17:13:00,
2013-11-14 12:23:00,78.0,64.0,-100.00,ENE,69,13.0,28.0,63,0.00,,,0.00,473.000000,,2013-11-14 17:23:00,
2013-11-14 12:33:00,78.0,64.0,-100.00,ENE,69,13.0,28.0,63,0.00,,,0.00,473.000000,,2013-11-14 17:33:00,
2013-11-14 13:12:00,78.0,63.0,-100.00,ENE,68,14.0,26.0,60,0.00,,,0.00,614.000000,,2013-11-14 18:12:00,
2013-11-14 13:22:00,78.0,63.0,-100.00,ENE,68,14.0,26.0,60,0.00,,,0.00,614.000000,,2013-11-14 18:22:00,
2013-11-14 13:33:00,78.0,63.0,-100.00,ENE,68,14.0,26.0,60,0.00,,,0.00,614.000000,,2013-11-14 18:33:00,
2013-11-14 14:11:00,78.0,63.0,-100.00,ENE,73,14.0,25.0,60,0.00,,,0.00,680.000000,,2013-11-14 19:11:00,
2013-11-14 14:22:00,78.0,63.0,-100.00,ENE,73,14.0,25.0,60,0.00,,,0.00,680.000000,,2013-11-14 19:22:00,
2013-11-14 14:32:00,78.0,63.0,-100.00,ENE,73,14.0,25.0,60,0.00,,,0.00,680.000000,,2013-11-14 19:32:00,
2013-11-14 15:12:00,78.0,64.0,-100.00,ENE,72,14.0,26.0,62,0.00,,,0.00,460.000000,,2013-11-14 20:12:00,
2013-11-14 15:22:00,78.0,64.0,-100.00,ENE,72,14.0,26.0,62,0.00,,,0.00,460.000000,,2013-11-14 20:22:00,
2013-11-14 15:32:00,78.0,64.0,-100.00,ENE,72,14.0,26.0,62,0.00,,,0.00,460.000000,,2013-11-14 20:32:00,
2013-11-14 16:11:00,76.0,63.0,-100.00,ENE,69,13.0,24.0,64,0.00,,,0.00,285.000000,,2013-11-14 21:11:00,
2013-11-14 16:22:00,76.0,63.0,-100.00,ENE,69,13.0,24.0,64,0.00,,,0.00,285.000000,,2013-11-14 21:22:00,
2013-11-14 16:33:00,76.0,63.0,-100.00,ENE,69,13.0,24.0,64,0.00,,,0.00,285.000000,,2013-11-14 21:33:00,
2013-11-14 17:13:00,75.0,62.0,-100.00,ENE,76,13.0,23.0,64,0.00,,,0.00,129.000000,,2013-11-14 22:13:00,
2013-11-14 17:23:00,75.0,62.0,-100.00,ENE,76,13.0,23.0,64,0.00,,,0.00,129.000000,,2013-11-14 22:23:00,
2013-11-14 17:33:00,75.0,62.0,-100.00,ENE,76,13.0,23.0,64,0.00,,,0.00,129.000000,,2013-11-14 22:33:00,
2013-11-14 18:12:00,75.0,62.0,-100.00,ENE,75,11.0,21.0,65,0.00,,,0.00,48.000000,,2013-11-14 23:12:00,
2013-11-14 18:22:00,75.0,62.0,-100.00,ENE,75,11.0,21.0,65,0.00,,,0.00,48.000000,,2013-11-14 23:22:00,
2013-11-14 18:33:00,75.0,62.0,-100.00,ENE,75,11.0,21.0,65,0.00,,,0.00,48.000000,,2013-11-14 23:33:00,
2013-11-14 19:12:00,74.0,64.0,-100.00,ENE,63,10.0,21.0,71,0.00,,,0.00,0.000000,,2013-11-15 00:12:00,
2013-11-14 19:22:00,74.0,64.0,-100.00,ENE,63,10.0,21.0,71,0.00,,,0.00,0.000000,,2013-11-15 00:22:00,
2013-11-14 19:32:00,74.0,64.0,-100.00,ENE,63,10.0,21.0,71,0.00,,,0.00,0.000000,,2013-11-15 00:32:00,
2013-11-14 20:12:00,74.0,63.0,-100.00,ENE,72,11.0,20.0,68,0.00,,,0.00,0.000000,,2013-11-15 01:12:00,
2013-11-14 20:22:00,74.0,63.0,-100.00,ENE,72,11.0,20.0,68,0.00,,,0.00,0.000000,,2013-11-15 01:22:00,
2013-11-14 20:32:00,74.0,63.0,-100.00,ENE,72,11.0,20.0,68,0.00,,,0.00,0.000000,,2013-11-15 01:32:00,
2013-11-14 21:12:00,75.0,65.0,-100.00,ENE,66,10.0,17.0,70,0.00,,,0.00,0.000000,,2013-11-15 02:12:00,
2013-11-14 21:22:00,75.0,65.0,-100.00,ENE,66,10.0,17.0,70,0.00,,,0.00,0.000000,,2013-11-15 02:22:00,
2013-11-14 21:32:00,75.0,65.0,-100.00,ENE,66,10.0,17.0,70,0.00,,,0.00,0.000000,,2013-11-15 02:32:00,
2013-11-14 22:12:00,75.0,65.0,-100.00,East,81,10.0,20.0,70,0.00,,,0.00,0.000000,,2013-11-15 03:12:00,
2013-11-14 22:22:00,75.0,65.0,-100.00,East,81,10.0,20.0,70,0.00,,,0.00,0.000000,,2013-11-15 03:22:00,
2013-11-14 22:33:00,75.0,65.0,-100.00,East,81,10.0,20.0,70,0.00,,,0.00,0.000000,,2013-11-15 03:33:00,
2013-11-14 23:14:00,75.0,65.0,-100.00,East,84,9.0,17.0,72,0.00,,,0.00,0.000000,,2013-11-15 04:14:00,
2013-11-14 23:24:00,75.0,65.0,-100.00,East,84,9.0,17.0,72,0.00,,,0.00,0.000000,,2013-11-15 04:24:00,
2013-11-14 23:33:00,75.0,65.0,-100.00,East,84,9.0,17.0,72,0.00,,,0.00,0.000000,,2013-11-15 04:33:00,